Weather History for Salina, KS

Change the Weather History Date:

Monday, October 27, 2014

  Actual Average Record
Temperature  
Mean Temperature 66 °F 54 °F  
Max Temperature 74 °F 65 °F 91 °F (1922)
Min Temperature 57 °F 42 °F 21 °F (1914)
Degree Days  
Heating Degree Days 0 12  
Month to date heating degree days 138 217  
Since 1 July heating degree days 178 269  
Cooling Degree Days 1 0  
Month to date cooling degree days 43 32  
Year to date cooling degree days 1801 1644  
Growing Degree Days 15 (Base 50)    
Moisture  
Dew Point 46 °F    
Average Humidity 56    
Maximum Humidity 78    
Minimum Humidity 33    
Precipitation  
Precipitation 0.00 in 0.06 in 1.23 in (1980)
Month to date precipitation 1.56 2.07  
Year to date precipitation 26.98 29.11  
Sea Level Pressure  
Sea Level Pressure 29.69 in    
Wind  
Wind Speed 15 mph (NNW)    
Max Wind Speed 32 mph    
Max Gust Speed 38 mph    
Visibility 10 miles    
Events      
T = Trace of Precipitation, MM = Missing Value Source: NWS Daily Summary

Daily Weather History Graph

Daily Weather History Graph

Search for Another Location

Airport:

Trip Planner

Search our weather history database for the weather conditions in past years. The results will help you decide how hot, cold, wet, or windy it might be!

Date:

Astronomy

Oct. 27, 2014 Rise Set
Actual Time 7:52 AM CDT 6:36 PM CDT
Civil Twilight 7:24 AM CDT 7:03 PM CDT
Nautical Twilight 6:53 AM CDT 7:34 PM CDT
Astronomical Twilight 6:22 AM CDT 8:05 PM CDT
Moon 11:27 AM CDT (10/27) 9:44 PM CDT (10/27)
Length of Visible Light 11h 38m
Length of Day
10h 43m
Waxing Crescent, 15% of the Moon is Illuminated
Oct 27
Waxing Crescent
Oct 30
First Quarter
Nov 6
Full
Nov 14
Last Quarter
Nov 22
New

Hourly Weather History & Observations

Time (CDT) Temp. Dew Point Humidity Pressure Visibility Wind Dir Wind Speed Gust Speed Precip Events Conditions
12:53 AM 64.0 °F 53.1 °F 67% 29.56 in 10.0 mi SSE 3.5 mph - N/A   Clear
1:53 AM 63.0 °F 55.0 °F 75% 29.55 in 10.0 mi South 9.2 mph - N/A   Clear
2:53 AM 61.0 °F 54.0 °F 78% 29.53 in 10.0 mi South 9.2 mph - N/A   Clear
3:53 AM 63.0 °F 52.0 °F 67% 29.51 in 10.0 mi South 9.2 mph - N/A   Clear
4:53 AM 64.9 °F 51.1 °F 61% 29.49 in 10.0 mi South 11.5 mph - N/A   Clear
5:53 AM 64.9 °F 51.1 °F 61% 29.49 in 10.0 mi South 11.5 mph - N/A   Clear
6:53 AM 64.0 °F 52.0 °F 65% 29.49 in 10.0 mi SSW 6.9 mph - N/A   Clear
7:53 AM 59.0 °F 51.1 °F 75% 29.54 in 10.0 mi NW 3.5 mph - N/A   Clear
8:53 AM 60.1 °F 48.9 °F 67% 29.59 in 10.0 mi NNW 16.1 mph - N/A   Clear
9:53 AM 61.0 °F 46.0 °F 58% 29.63 in 10.0 mi NW 19.6 mph - 0.00 in   Clear
10:53 AM 66.0 °F 45.0 °F 47% 29.64 in 10.0 mi NNW 23.0 mph 29.9 mph N/A   Clear
11:53 AM 69.1 °F 44.1 °F 40% 29.67 in 10.0 mi North 24.2 mph 34.5 mph N/A   Clear
12:53 PM 71.1 °F 44.1 °F 38% 29.67 in 10.0 mi NNW 27.6 mph 33.4 mph N/A   Clear
1:53 PM 73.9 °F 44.1 °F 34% 29.67 in 10.0 mi North 25.3 mph 33.4 mph N/A   Clear
2:53 PM 73.0 °F 43.0 °F 34% 29.68 in 10.0 mi NNW 20.7 mph - N/A   Clear
3:53 PM 72.0 °F 44.1 °F 37% 29.70 in 10.0 mi North 16.1 mph - N/A   Clear
4:53 PM 71.1 °F 44.1 °F 38% 29.73 in 10.0 mi North 11.5 mph - N/A   Clear
5:53 PM 71.1 °F 43.0 °F 36% 29.75 in 10.0 mi NNW 10.4 mph - N/A   Clear
6:53 PM 66.0 °F 42.1 °F 42% 29.81 in 10.0 mi NNW 21.9 mph - N/A   Clear
7:53 PM 62.1 °F 39.9 °F 44% 29.88 in 10.0 mi North 19.6 mph - N/A   Mostly Cloudy
8:53 PM 57.9 °F 37.9 °F 47% 29.93 in 10.0 mi North 11.5 mph - N/A   Mostly Cloudy
9:53 PM 57.9 °F 39.0 °F 49% 29.97 in 10.0 mi NNW 9.2 mph - N/A   Mostly Cloudy
10:53 PM 57.9 °F 39.0 °F 49% 30.00 in 10.0 mi NNW 13.8 mph - N/A   Overcast
11:53 PM 57.9 °F 39.0 °F 49% 30.03 in 10.0 mi NNW 13.8 mph - N/A   Overcast